Location: Newark
(37.8333°N, 119.5000°W)
Time: 17:31:16
(UTC+00:00)

Tiros 1 despin weight - Pass Details

Date: 25 August 2019
Orbit: 594 x 643 km, 48.2° (Epoch: 16 October)

Event Time Altitude Azimuth Distance (km) Brightness Sun altitude
Exits shadow 09:21:41 13° 46° (NE) 1,808 ? -37.8°
Drops below altitude 10° 09:22:17 10° 52° (NE) 1,975 ? -37.7°
Sets 09:25:05 0° 68° (ENE) 2,891 ? -37.5°
